Location: Cheyres
(46.8153°N, 6.7877°E)
Time: 19:10:22
(UTC+00:00)

BlueWalker 3 - Visible Passes

Search period start: 28 February 2024 00:00
Search period end: 09 March 2024 00:00
Orbit: 485 x 500 km, 53.2° (Epoch: 28 February)

Date Brightness Start Highest point End Pass type
(mag) Time Alt. Az. Time Alt. Az. Time Alt. Az.
28 Feb 2.6 18:48:26 10° NW 18:52:03 41° NNE 18:53:00 34° NE visible
28 Feb 4.9 20:26:45 10° WNW 20:27:29 15° WNW 20:27:29 15° WNW visible
29 Feb 2.6 18:24:34 10° NW 18:28:11 40° NNE 18:30:13 22° ENE visible
29 Feb 4.0 20:02:53 10° WNW 20:04:42 26° WNW 20:04:42 26° WNW visible
01 Mar 2.6 18:00:42 10° NW 18:04:18 40° NNE 18:07:28 12° E visible
01 Mar 2.8 19:39:00 10° WNW 19:41:57 46° W 19:41:57 46° W visible
02 Mar 2.1 19:15:06 10° WNW 19:18:49 59° SW 19:19:16 54° S visible
03 Mar 2.2 18:51:12 10° WNW 18:54:56 61° SW 18:56:39 29° SE visible
04 Mar 2.2 18:27:17 10° WNW 18:31:01 63° SW 18:34:07 14° SE visible
04 Mar 4.8 20:07:39 10° WSW 20:08:37 11° SW 20:08:37 11° SW visible
05 Mar 2.2 18:03:20 10° WNW 18:07:06 65° SSW 18:10:49 10° SE visible
05 Mar 4.7 19:43:30 10° WSW 19:44:43 11° SW 19:45:56 10° SSW visible
06 Mar 4.7 19:19:23 10° WSW 19:20:48 12° SW 19:22:12 10° SSW visible
07 Mar 4.8 18:55:17 10° WSW 18:56:51 12° SW 18:58:25 10° SSW visible
08 Mar 4.8 18:31:11 10° WSW 18:32:54 13° SW 18:34:37 10° SSW visible
